Time,TemperatureF,DewpointF,PressureIn,WindDirection,WindDirectionDegrees,WindSpeedMPH,WindSpeedGustMPH,Humidity,HourlyPrecipIn,Conditions,Clouds,dailyrainin,SoftwareType,DateUTC
2013-03-27 00:05:00,28.8,24.2,29.74,North,0,6.9,6.9,83,0.00,OVC,BKN,0.00,WeatherDisplay:10.37,2013-03-26 23:05:00,
2013-03-27 00:10:00,28.8,24.5,29.74,North,0,3.0,7.0,84,0.00,OVC,BKN,0.00,WeatherDisplay:10.37,2013-03-26 23:10:00,
2013-03-27 00:15:00,28.8,24.5,29.74,North,350,5.0,7.0,84,0.00,OVC,BKN,0.00,WeatherDisplay:10.37,2013-03-26 23:15:00,
2013-03-27 00:20:00,28.8,24.2,29.74,North,351,3.0,7.0,83,0.00,OVC,BKN,0.00,WeatherDisplay:10.37,2013-03-26 23:20:00,
2013-03-27 00:26:00,28.6,24.1,29.75,North,0,8.1,8.1,83,0.00,OVC,BKN,0.00,WeatherDisplay:10.37,2013-03-26 23:26:00,
2013-03-27 00:31:00,28.6,24.1,29.75,North,0,5.8,5.8,83,0.00,OVC,BKN,0.00,WeatherDisplay:10.37,2013-03-26 23:31:00,
2013-03-27 00:36:00,28.6,24.1,29.75,NNW,338,8.1,8.1,83,0.00,OVC,BKN,0.00,WeatherDisplay:10.37,2013-03-26 23:36:00,
2013-03-27 00:42:00,28.4,23.9,29.75,North,0,6.9,6.9,83,0.00,OVC,BKN,0.00,WeatherDisplay:10.37,2013-03-26 23:42:00,
2013-03-27 00:47:00,28.4,23.9,29.74,NW,315,6.9,6.9,83,0.00,OVC,BKN,0.00,WeatherDisplay:10.37,2013-03-26 23:47:00,
2013-03-27 00:53:00,28.4,23.9,29.74,North,0,8.1,8.1,83,0.00,OVC,BKN,0.00,WeatherDisplay:10.37,2013-03-26 23:53:00,
2013-03-27 00:58:00,28.4,23.9,29.75,NW,315,4.6,4.6,83,0.00,OVC,BKN,0.00,WeatherDisplay:10.37,2013-03-26 23:58:00,
2013-03-27 01:03:00,28.4,24.2,29.74,North,0,6.9,6.9,84,0.00,OVC,BKN,0.00,WeatherDisplay:10.37,2013-03-27 00:03:00,
2013-03-27 01:08:00,28.4,24.2,29.74,NW,315,6.9,6.9,84,0.00,OVC,BKN,0.00,WeatherDisplay:10.37,2013-03-27 00:08:00,
2013-03-27 01:13:00,28.4,24.2,29.75,NW,315,5.8,5.8,84,0.00,OVC,BKN,0.00,WeatherDisplay:10.37,2013-03-27 00:13:00,
2013-03-27 01:18:00,28.4,24.2,29.74,NW,315,6.9,6.9,84,0.00,OVC,BKN,0.00,WeatherDisplay:10.37,2013-03-27 00:18:00,
2013-03-27 01:23:00,28.4,24.2,29.74,WNW,292,8.1,8.1,84,0.00,OVC,BKN,0.00,WeatherDisplay:10.37,2013-03-27 00:23:00,
2013-03-27 01:28:00,28.4,24.2,29.75,NE,45,6.0,6.0,84,0.00,OVC,BKN,0.00,WeatherDisplay:10.37,2013-03-27 00:28:00,
2013-03-27 01:33:00,28.2,22.8,29.74,NE,45,8.1,8.1,80,0.00,OVC,BKN,0.00,WeatherDisplay:10.37,2013-03-27 00:33:00,
2013-03-27 01:38:00,28.2,22.8,29.74,North,0,5.8,5.8,80,0.00,OVC,BKN,0.00,WeatherDisplay:10.37,2013-03-27 00:38:00,
2013-03-27 01:43:00,28.2,22.8,29.74,NNE,22,5.8,5.8,80,0.00,OVC,BKN,0.00,WeatherDisplay:10.37,2013-03-27 00:43:00,
2013-03-27 01:48:00,28.2,22.8,29.74,North,0,6.9,6.9,80,0.00,OVC,BKN,0.00,WeatherDisplay:10.37,2013-03-27 00:48:00,
2013-03-27 01:53:00,28.2,22.8,29.74,NW,315,6.9,6.9,80,0.00,OVC,BKN,0.00,WeatherDisplay:10.37,2013-03-27 00:53:00,
2013-03-27 01:58:00,28.2,22.8,29.74,NE,45,5.8,5.8,80,0.00,OVC,BKN,0.00,WeatherDisplay:10.37,2013-03-27 00:58:00,
2013-03-27 02:03:00,28.2,22.8,29.74,North,0,6.9,6.9,80,0.00,OVC,BKN,0.00,WeatherDisplay:10.37,2013-03-27 01:03:00,
2013-03-27 02:08:00,28.2,22.5,29.74,NNW,338,6.9,6.9,79,0.00,OVC,BKN,0.00,WeatherDisplay:10.37,2013-03-27 01:08:00,
2013-03-27 02:13:00,28.0,22.4,29.74,North,0,5.8,5.8,79,0.00,OVC,BKN,0.00,WeatherDisplay:10.37,2013-03-27 01:13:00,
2013-03-27 02:18:00,28.0,22.4,29.74,North,0,4.6,4.6,79,0.00,OVC,BKN,0.00,WeatherDisplay:10.37,2013-03-27 01:18:00,
2013-03-27 02:23:00,28.0,22.4,29.74,NE,45,4.6,4.6,79,0.00,OVC,BKN,0.00,WeatherDisplay:10.37,2013-03-27 01:23:00,
2013-03-27 02:28:00,28.0,22.4,29.75,North,0,8.1,8.1,79,0.00,OVC,BKN,0.00,WeatherDisplay:10.37,2013-03-27 01:28:00,
2013-03-27 02:33:00,28.0,22.4,29.74,North,0,6.0,6.0,79,0.00,OVC,BKN,0.00,WeatherDisplay:10.37,2013-03-27 01:33:00,
2013-03-27 02:38:00,28.0,22.4,29.75,NW,315,6.0,6.0,79,0.00,OVC,BKN,0.00,WeatherDisplay:10.37,2013-03-27 01:38:00,
2013-03-27 02:43:00,28.0,22.4,29.75,NW,315,6.0,6.0,79,0.00,OVC,BKN,0.00,WeatherDisplay:10.37,2013-03-27 01:43:00,
2013-03-27 02:48:00,28.0,22.4,29.74,North,0,6.9,6.9,79,0.00,-SN,BKN,0.00,WeatherDisplay:10.37,2013-03-27 01:48:00,
2013-03-27 02:53:00,28.0,22.4,29.75,NNE,22,6.0,6.0,79,0.00,-SN,BKN,0.00,WeatherDisplay:10.37,2013-03-27 01:53:00,
2013-03-27 02:58:00,28.0,22.4,29.74,NW,315,5.8,5.8,79,0.00,-SN,BKN,0.00,WeatherDisplay:10.37,2013-03-27 01:58:00,
2013-03-27 03:03:00,28.0,22.4,29.75,NW,315,8.1,8.1,79,0.00,-SN,BKN,0.00,WeatherDisplay:10.37,2013-03-27 02:03:00,
2013-03-27 03:08:00,28.0,22.4,29.75,NNE,22,5.8,5.8,79,0.00,-SN,BKN,0.00,WeatherDisplay:10.37,2013-03-27 02:08:00,
2013-03-27 03:13:00,28.0,22.4,29.75,NNE,22,6.0,6.0,79,0.00,-SN,BKN,0.00,WeatherDisplay:10.37,2013-03-27 02:13:00,
2013-03-27 03:18:00,28.0,22.4,29.74,NW,315,6.0,6.0,79,0.00,-SN,BKN,0.00,WeatherDisplay:10.37,2013-03-27 02:18:00,
2013-03-27 03:23:00,27.9,22.2,29.74,NW,315,6.9,6.9,79,0.00,-SN,BKN,0.00,WeatherDisplay:10.37,2013-03-27 02:23:00,
2013-03-27 03:28:00,27.9,22.2,29.74,North,0,5.8,5.8,79,0.00,-SN,BKN,0.00,WeatherDisplay:10.37,2013-03-27 02:28:00,
2013-03-27 03:33:00,27.9,22.2,29.74,NNW,338,6.9,6.9,79,0.00,-SN,BKN,0.00,WeatherDisplay:10.37,2013-03-27 02:33:00,
2013-03-27 03:38:00,27.9,22.2,29.74,NW,315,5.4,5.4,79,0.00,-SN,BKN,0.00,WeatherDisplay:10.37,2013-03-27 02:38:00,
2013-03-27 03:43:00,27.9,22.2,29.74,North,0,7.6,7.6,79,0.00,-SN,BKN,0.00,WeatherDisplay:10.37,2013-03-27 02:43:00,
2013-03-27 03:48:00,27.9,22.2,29.74,NW,315,5.8,5.8,79,0.00,-SN,BKN,0.00,WeatherDisplay:10.37,2013-03-27 02:48:00,
2013-03-27 03:53:00,27.9,22.2,29.74,North,0,5.8,5.8,79,0.00,-SN,BKN,0.00,WeatherDisplay:10.37,2013-03-27 02:53:00,
2013-03-27 03:58:00,27.9,22.2,29.74,NW,315,6.0,6.0,79,0.00,-SN,BKN,0.00,WeatherDisplay:10.37,2013-03-27 02:58:00,
2013-03-27 04:03:00,27.9,22.2,29.74,NNW,338,3.8,3.8,79,0.00,-SN,BKN,0.00,WeatherDisplay:10.37,2013-03-27 03:03:00,
2013-03-27 04:08:00,27.7,22.0,29.74,North,0,3.5,3.5,79,0.00,-SN,BKN,0.00,WeatherDisplay:10.37,2013-03-27 03:08:00,
2013-03-27 04:13:00,27.7,22.0,29.74,NNW,338,5.8,5.8,79,0.00,-SN,BKN,0.00,WeatherDisplay:10.37,2013-03-27 03:13:00,
2013-03-27 04:18:00,27.7,22.0,29.75,North,0,6.0,6.0,79,0.00,-SN,BKN,0.00,WeatherDisplay:10.37,2013-03-27 03:18:00,
2013-03-27 04:23:00,27.7,22.0,29.75,NW,315,3.5,3.5,79,0.00,-SN,BKN,0.00,WeatherDisplay:10.37,2013-03-27 03:23:00,
2013-03-27 04:28:00,27.7,22.0,29.75,NNW,338,5.8,5.8,79,0.00,-SN,BKN,0.00,WeatherDisplay:10.37,2013-03-27 03:28:00,
2013-03-27 04:33:00,27.7,22.0,29.75,NE,45,5.8,5.8,79,0.00,-SN,BKN,0.00,WeatherDisplay:10.37,2013-03-27 03:33:00,
2013-03-27 04:38:00,27.7,22.0,29.75,NW,315,4.6,4.6,79,0.00,-SN,BKN,0.00,WeatherDisplay:10.37,2013-03-27 03:38:00,
2013-03-27 04:43:00,27.7,22.0,29.75,North,0,4.6,4.6,79,0.00,-SN,BKN,0.00,WeatherDisplay:10.37,2013-03-27 03:43:00,
2013-03-27 04:48:00,27.7,22.0,29.75,North,0,6.0,6.0,79,0.00,-SN,BKN,0.00,WeatherDisplay:10.37,2013-03-27 03:48:00,
2013-03-27 04:53:00,27.7,22.0,29.75,North,0,5.8,5.8,79,0.00,-SN,BKN,0.00,WeatherDisplay:10.37,2013-03-27 03:53:00,
2013-03-27 04:59:00,27.7,22.0,29.75,North,0,4.6,4.6,79,0.00,-SN,BKN,0.00,WeatherDisplay:10.37,2013-03-27 03:59:00,
2013-03-27 05:00:00,27.7,22.0,29.75,North,1,2.0,6.0,79,0.00,-SN,BKN,0.00,WeatherDisplay:10.37,2013-03-27 04:00:00,
2013-03-27 05:01:00,27.7,22.0,29.75,North,0,4.6,4.6,79,0.00,-SN,BKN,0.00,WeatherDisplay:10.37,2013-03-27 04:01:00,
2013-03-27 05:02:00,27.7,22.0,29.75,NNW,338,3.8,3.8,79,0.00,-SN,BKN,0.00,WeatherDisplay:10.37,2013-03-27 04:02:00,
2013-03-27 05:04:00,27.7,22.0,29.74,NE,45,4.6,4.6,79,0.00,-SN,BKN,0.00,WeatherDisplay:10.37,2013-03-27 04:04:00,
2013-03-27 05:09:00,27.7,22.0,29.75,NNE,22,5.8,5.8,79,0.00,-SN,BKN,0.00,WeatherDisplay:10.37,2013-03-27 04:09:00,
2013-03-27 05:14:00,27.7,22.0,29.75,North,0,4.6,4.6,79,0.00,-SN,BKN,0.00,WeatherDisplay:10.37,2013-03-27 04:14:00,
2013-03-27 05:20:00,27.7,22.0,29.75,North,0,3.8,3.8,79,0.00,-SN,BKN,0.00,WeatherDisplay:10.37,2013-03-27 04:20:00,
2013-03-27 05:25:00,27.7,22.0,29.75,North,0,5.4,5.4,79,0.00,-SN,BKN,0.00,WeatherDisplay:10.37,2013-03-27 04:25:00,
2013-03-27 05:30:00,27.7,22.0,29.75,North,0,6.0,6.0,79,0.00,-SN,BKN,0.00,WeatherDisplay:10.37,2013-03-27 04:30:00,
2013-03-27 05:35:00,27.7,22.0,29.75,North,0,6.9,6.9,79,0.00,-SN,BKN,0.00,WeatherDisplay:10.37,2013-03-27 04:35:00,
2013-03-27 05:40:00,27.7,22.0,29.75,NNE,22,5.8,5.8,79,0.00,-SN,BKN,0.00,WeatherDisplay:10.37,2013-03-27 04:40:00,
2013-03-27 05:45:00,27.7,22.0,29.75,NNE,22,5.8,5.8,79,0.00,-SN,BKN,0.00,WeatherDisplay:10.37,2013-03-27 04:45:00,
2013-03-27 05:50:00,27.7,22.0,29.75,North,353,3.0,6.0,79,0.00,-SN,BKN,0.00,WeatherDisplay:10.37,2013-03-27 04:50:00,
2013-03-27 05:56:00,27.7,22.0,29.75,North,0,5.8,5.8,79,0.00,-SN,BKN,0.00,WeatherDisplay:10.37,2013-03-27 04:56:00,
2013-03-27 06:01:00,27.7,22.0,29.75,North,0,3.8,3.8,79,0.00,-SN,BKN,0.00,WeatherDisplay:10.37,2013-03-27 05:01:00,
2013-03-27 06:06:00,27.7,22.0,29.75,North,0,8.1,8.1,79,0.00,-SN,BKN,0.00,WeatherDisplay:10.37,2013-03-27 05:06:00,
2013-03-27 06:11:00,27.7,22.0,29.75,North,0,5.4,5.4,79,0.00,-SN,BKN,0.00,WeatherDisplay:10.37,2013-03-27 05:11:00,
2013-03-27 06:16:00,27.7,22.0,29.76,North,0,6.9,6.9,79,0.00,-SN,BKN,0.00,WeatherDisplay:10.37,2013-03-27 05:16:00,
2013-03-27 06:21:00,27.7,22.0,29.76,North,0,4.6,4.6,79,0.00,-SN,BKN,0.00,WeatherDisplay:10.37,2013-03-27 05:21:00,
2013-03-27 06:26:00,27.9,22.2,29.76,North,0,4.6,4.6,79,0.00,-SN,BKN,0.00,WeatherDisplay:10.37,2013-03-27 05:26:00,
2013-03-27 06:31:00,27.9,22.2,29.75,North,0,6.0,6.0,79,0.00,-SN,BKN,0.00,WeatherDisplay:10.37,2013-03-27 05:31:00,
2013-03-27 06:36:00,27.9,22.2,29.76,North,0,7.6,7.6,79,0.00,-SN,BKN,0.00,WeatherDisplay:10.37,2013-03-27 05:36:00,
2013-03-27 06:41:00,27.9,22.2,29.76,North,0,6.9,6.9,79,0.00,-SN,BKN,0.00,WeatherDisplay:10.37,2013-03-27 05:41:00,
2013-03-27 06:46:00,27.9,22.2,29.76,NNW,338,5.8,5.8,79,0.00,-SN,BKN,0.00,WeatherDisplay:10.37,2013-03-27 05:46:00,
2013-03-27 06:51:00,28.0,22.4,29.76,North,0,6.0,6.0,79,0.00,-SN,BKN,0.00,WeatherDisplay:10.37,2013-03-27 05:51:00,
2013-03-27 06:57:00,28.0,22.4,29.76,NNE,22,6.9,6.9,79,0.00,-SN,BKN,0.00,WeatherDisplay:10.37,2013-03-27 05:57:00,
2013-03-27 07:02:00,28.2,22.5,29.76,North,0,8.1,8.1,79,0.00,-SN,BKN,0.00,WeatherDisplay:10.37,2013-03-27 06:02:00,
2013-03-27 07:07:00,28.2,22.5,29.76,North,0,6.9,6.9,79,0.00,-SN,BKN,0.00,WeatherDisplay:10.37,2013-03-27 06:07:00,
2013-03-27 07:12:00,28.4,23.9,29.76,North,0,6.9,6.9,83,0.00,-SN,BKN,0.00,WeatherDisplay:10.37,2013-03-27 06:12:00,
2013-03-27 07:18:00,28.4,23.9,29.77,North,0,6.9,6.9,83,0.00,-SN,BKN,0.00,WeatherDisplay:10.37,2013-03-27 06:18:00,
2013-03-27 07:23:00,28.4,23.9,29.77,North,0,5.8,5.8,83,0.00,-SN,BKN,0.00,WeatherDisplay:10.37,2013-03-27 06:23:00,
2013-03-27 07:28:00,28.8,24.2,29.76,North,0,6.0,6.0,83,0.00,-SN,BKN,0.00,WeatherDisplay:10.37,2013-03-27 06:28:00,
2013-03-27 07:33:00,28.8,24.2,29.77,NNW,338,4.6,4.6,83,0.00,-SN,BKN,0.00,WeatherDisplay:10.37,2013-03-27 06:33:00,
2013-03-27 07:38:00,28.9,24.4,29.77,NW,315,5.8,5.8,83,0.00,-SN,BKN,0.00,WeatherDisplay:10.37,2013-03-27 06:38:00,
2013-03-27 07:43:00,29.1,24.6,29.77,North,0,5.8,5.8,83,0.00,-SN,BKN,0.00,WeatherDisplay:10.37,2013-03-27 06:43:00,
2013-03-27 07:48:00,29.3,24.8,29.77,NW,315,6.9,6.9,83,0.00,OVC,BKN,0.00,WeatherDisplay:10.37,2013-03-27 06:48:00,
2013-03-27 07:53:00,29.3,24.8,29.77,North,0,8.1,8.1,83,0.00,OVC,BKN,0.00,WeatherDisplay:10.37,2013-03-27 06:53:00,
2013-03-27 07:58:00,29.3,24.8,29.77,North,0,5.8,5.8,83,0.00,OVC,BKN,0.00,WeatherDisplay:10.37,2013-03-27 06:58:00,
2013-03-27 08:03:00,29.3,24.8,29.77,North,0,5.4,5.4,83,0.00,OVC,BKN,0.00,WeatherDisplay:10.37,2013-03-27 07:03:00,
2013-03-27 08:08:00,29.5,25.0,29.77,North,0,5.8,5.8,83,0.00,OVC,BKN,0.00,WeatherDisplay:10.37,2013-03-27 07:08:00,
2013-03-27 08:13:00,29.5,25.0,29.77,North,0,6.9,6.9,83,0.00,OVC,BKN,0.00,WeatherDisplay:10.37,2013-03-27 07:13:00,
2013-03-27 08:18:00,29.5,25.0,29.77,NNE,22,5.8,5.8,83,0.00,-SN,BKN,0.00,WeatherDisplay:10.37,2013-03-27 07:18:00,
2013-03-27 08:24:00,29.7,25.1,29.77,NE,45,5.8,5.8,83,0.00,-SN,BKN,0.00,WeatherDisplay:10.37,2013-03-27 07:24:00,
2013-03-27 08:29:00,29.8,25.3,29.78,North,0,5.8,5.8,83,0.00,-SN,BKN,0.00,WeatherDisplay:10.37,2013-03-27 07:29:00,
2013-03-27 08:35:00,29.8,25.3,29.78,North,0,8.1,8.1,83,0.00,-SN,BKN,0.00,WeatherDisplay:10.37,2013-03-27 07:35:00,
2013-03-27 08:40:00,29.8,25.3,29.78,North,0,6.0,6.0,83,0.00,-SN,BKN,0.00,WeatherDisplay:10.37,2013-03-27 07:40:00,
2013-03-27 08:45:00,30.0,25.5,29.78,NNE,22,6.9,6.9,83,0.00,-SN,BKN,0.00,WeatherDisplay:10.37,2013-03-27 07:45:00,
2013-03-27 08:50:00,30.0,25.5,29.78,North,0,5.4,5.4,83,0.00,-SN,BKN,0.00,WeatherDisplay:10.37,2013-03-27 07:50:00,
2013-03-27 08:55:00,30.2,25.1,29.79,NE,45,8.1,8.1,81,0.00,-SN,BKN,0.00,WeatherDisplay:10.37,2013-03-27 07:55:00,
2013-03-27 09:00:00,30.2,25.1,29.78,North,0,8.1,8.1,81,0.00,-SN,BKN,0.00,WeatherDisplay:10.37,2013-03-27 08:00:00,
2013-03-27 09:05:00,30.2,25.1,29.79,North,355,5.0,7.0,81,0.00,-SN,BKN,0.00,WeatherDisplay:10.37,2013-03-27 08:05:00,
2013-03-27 09:10:00,30.7,25.6,29.79,North,354,5.0,7.0,81,0.00,-SN,BKN,0.00,WeatherDisplay:10.37,2013-03-27 08:10:00,
2013-03-27 09:15:00,30.7,25.6,29.79,North,353,5.0,10.0,81,0.00,-SN,BKN,0.00,WeatherDisplay:10.37,2013-03-27 08:15:00,
2013-03-27 09:20:00,30.9,25.8,29.79,NNW,347,5.0,7.0,81,0.00,-SN,BKN,0.00,WeatherDisplay:10.37,2013-03-27 08:20:00,
2013-03-27 09:26:00,30.7,25.6,29.79,North,0,8.1,8.1,81,0.00,-SN,BKN,0.00,WeatherDisplay:10.37,2013-03-27 08:26:00,
2013-03-27 09:31:00,30.4,24.9,29.80,NW,315,8.1,8.1,80,0.00,-SN,BKN,0.00,WeatherDisplay:10.37,2013-03-27 08:31:00,
2013-03-27 09:36:00,30.2,24.8,29.80,North,0,5.8,5.8,80,0.00,-SN,BKN,0.00,WeatherDisplay:10.37,2013-03-27 08:36:00,
2013-03-27 09:41:00,30.2,24.8,29.80,North,0,6.9,6.9,80,0.00,-SN,BKN,0.00,WeatherDisplay:10.37,2013-03-27 08:41:00,
2013-03-27 09:46:00,30.7,25.6,29.80,North,0,6.0,6.0,81,0.00,-SN,BKN,0.00,WeatherDisplay:10.37,2013-03-27 08:46:00,
2013-03-27 09:51:00,30.9,25.8,29.80,North,0,5.4,5.4,81,0.00,-SN,BKN,0.00,WeatherDisplay:10.37,2013-03-27 08:51:00,
2013-03-27 09:56:00,31.3,26.1,29.80,North,0,6.9,6.9,81,0.00,-SN,BKN,0.00,WeatherDisplay:10.37,2013-03-27 08:56:00,
2013-03-27 10:01:00,31.6,26.5,29.80,NW,315,6.9,6.9,81,0.00,-SN,BKN,0.00,WeatherDisplay:10.37,2013-03-27 09:01:00,
2013-03-27 10:06:00,31.8,26.4,29.80,North,0,6.9,6.9,80,0.00,-SN,BKN,0.00,WeatherDisplay:10.37,2013-03-27 09:06:00,
2013-03-27 10:11:00,31.8,26.4,29.80,East,90,6.9,6.9,80,0.00,-SN,BKN,0.00,WeatherDisplay:10.37,2013-03-27 09:11:00,
2013-03-27 10:16:00,32.0,25.9,29.81,North,0,6.9,6.9,78,0.00,-SN,BKN,0.00,WeatherDisplay:10.37,2013-03-27 09:16:00,
2013-03-27 10:21:00,32.2,26.1,29.80,West,270,5.8,5.8,78,0.00,-SN,BKN,0.00,WeatherDisplay:10.37,2013-03-27 09:21:00,
2013-03-27 10:26:00,32.4,26.3,29.80,NW,315,8.1,8.1,78,0.00,-SN,BKN,0.00,WeatherDisplay:10.37,2013-03-27 09:26:00,
2013-03-27 10:31:00,32.4,26.0,29.81,North,0,8.1,8.1,77,0.00,-SN,BKN,0.00,WeatherDisplay:10.37,2013-03-27 09:31:00,
2013-03-27 10:36:00,32.4,26.0,29.80,North,0,8.1,8.1,77,0.00,-SN,BKN,0.00,WeatherDisplay:10.37,2013-03-27 09:36:00,
2013-03-27 10:41:00,32.4,26.0,29.80,NW,315,8.1,8.1,77,0.01,-SN,BKN,0.01,WeatherDisplay:10.37,2013-03-27 09:41:00,
2013-03-27 10:46:00,32.7,26.3,29.81,North,0,6.9,6.9,77,0.01,-SN,BKN,0.01,WeatherDisplay:10.37,2013-03-27 09:46:00,
2013-03-27 10:51:00,32.7,26.0,29.81,NW,315,8.1,8.1,76,0.01,-SN,BKN,0.01,WeatherDisplay:10.37,2013-03-27 09:51:00,
2013-03-27 10:56:00,32.5,25.8,29.81,NW,315,6.9,6.9,76,0.01,-SN,BKN,0.01,WeatherDisplay:10.37,2013-03-27 09:56:00,
2013-03-27 11:01:00,32.5,25.8,29.81,North,0,5.8,5.8,76,0.01,-SN,BKN,0.01,WeatherDisplay:10.37,2013-03-27 10:01:00,
2013-03-27 11:06:00,32.5,25.8,29.81,North,0,5.8,5.8,76,0.01,-SN,BKN,0.01,WeatherDisplay:10.37,2013-03-27 10:06:00,
2013-03-27 11:11:00,32.5,25.5,29.81,NNE,22,5.8,5.8,75,0.01,-SN,BKN,0.01,WeatherDisplay:10.37,2013-03-27 10:11:00,
2013-03-27 11:16:00,32.7,25.7,29.81,North,0,6.9,6.9,75,0.01,-SN,BKN,0.01,WeatherDisplay:10.37,2013-03-27 10:16:00,
2013-03-27 11:21:00,32.7,25.7,29.81,North,0,5.8,5.8,75,0.01,-SN,BKN,0.01,WeatherDisplay:10.37,2013-03-27 10:21:00,
2013-03-27 11:26:00,32.9,25.8,29.82,NNW,338,5.8,5.8,75,0.01,-SN,BKN,0.01,WeatherDisplay:10.37,2013-03-27 10:26:00,
2013-03-27 11:31:00,33.1,26.0,29.81,North,0,4.6,4.6,75,0.01,-SN,BKN,0.01,WeatherDisplay:10.37,2013-03-27 10:31:00,
2013-03-27 11:36:00,33.1,26.0,29.82,North,0,5.8,5.8,75,0.01,-SN,BKN,0.01,WeatherDisplay:10.37,2013-03-27 10:36:00,
2013-03-27 11:41:00,33.4,26.4,29.81,North,0,6.9,6.9,75,0.00,-SN,BKN,0.01,WeatherDisplay:10.37,2013-03-27 10:41:00,
2013-03-27 11:48:00,34.0,26.6,29.82,NNE,22,5.8,5.8,74,0.00,-SN,BKN,0.01,WeatherDisplay:10.37,2013-03-27 10:48:00,
2013-03-27 11:54:00,34.2,26.7,29.82,NE,45,5.8,5.8,74,0.00,-SN,BKN,0.01,WeatherDisplay:10.37,2013-03-27 10:54:00,
2013-03-27 11:59:00,34.3,26.9,29.82,NE,45,5.8,5.8,74,0.00,-SN,BKN,0.01,WeatherDisplay:10.37,2013-03-27 10:59:00,
2013-03-27 12:04:00,34.5,27.1,29.82,NE,45,4.6,4.6,74,0.00,-SN,BKN,0.01,WeatherDisplay:10.37,2013-03-27 11:04:00,
2013-03-27 12:09:00,34.9,27.1,29.82,NW,315,5.8,5.8,73,0.00,-SN,BKN,0.01,WeatherDisplay:10.37,2013-03-27 11:09:00,
2013-03-27 12:14:00,34.7,26.6,29.82,NE,45,5.8,5.8,72,0.00,-SN,BKN,0.01,WeatherDisplay:10.37,2013-03-27 11:14:00,
2013-03-27 12:19:00,34.9,26.8,29.82,West,270,4.6,4.6,72,0.00,-SN,BKN,0.01,WeatherDisplay:10.37,2013-03-27 11:19:00,
2013-03-27 12:24:00,35.1,26.9,29.82,NW,315,5.4,5.4,72,0.00,-SN,BKN,0.01,WeatherDisplay:10.37,2013-03-27 11:24:00,
2013-03-27 12:29:00,34.7,26.6,29.82,NW,315,6.9,6.9,72,0.00,-SN,BKN,0.01,WeatherDisplay:10.37,2013-03-27 11:29:00,
2013-03-27 12:34:00,34.7,26.6,29.82,North,0,6.9,6.9,72,0.00,-SN,BKN,0.01,WeatherDisplay:10.37,2013-03-27 11:34:00,
2013-03-27 12:39:00,34.7,26.6,29.82,NW,315,4.6,4.6,72,0.00,-SN,BKN,0.01,WeatherDisplay:10.37,2013-03-27 11:39:00,
2013-03-27 12:44:00,34.7,26.6,29.82,North,0,6.9,6.9,72,0.00,-SN,BKN,0.01,WeatherDisplay:10.37,2013-03-27 11:44:00,
2013-03-27 12:49:00,34.3,26.2,29.82,NW,315,5.8,5.8,72,0.00,-SN,BKN,0.01,WeatherDisplay:10.37,2013-03-27 11:49:00,
2013-03-27 12:54:00,34.3,26.2,29.82,North,0,5.8,5.8,72,0.00,-SN,BKN,0.01,WeatherDisplay:10.37,2013-03-27 11:54:00,
2013-03-27 12:59:00,34.2,26.1,29.82,North,0,3.5,3.5,72,0.00,-SN,BKN,0.01,WeatherDisplay:10.37,2013-03-27 11:59:00,
2013-03-27 13:04:00,34.5,26.4,29.82,North,0,5.8,5.8,72,0.00,-SN,BKN,0.01,WeatherDisplay:10.37,2013-03-27 12:04:00,
2013-03-27 13:09:00,34.5,26.4,29.83,North,0,3.5,3.5,72,0.00,-SN,BKN,0.01,WeatherDisplay:10.37,2013-03-27 12:09:00,
2013-03-27 13:15:00,34.7,26.6,29.82,NW,315,5.8,5.8,72,0.00,-SN,BKN,0.01,WeatherDisplay:10.37,2013-03-27 12:15:00,
2013-03-27 13:20:00,34.9,27.1,29.81,NNW,338,6.9,6.9,73,0.00,-SN,BKN,0.01,WeatherDisplay:10.37,2013-03-27 12:20:00,
2013-03-27 13:25:00,34.9,27.1,29.82,WNW,292,5.8,5.8,73,0.00,-SN,BKN,0.01,WeatherDisplay:10.37,2013-03-27 12:25:00,
2013-03-27 13:30:00,35.1,27.3,29.82,NW,315,5.8,5.8,73,0.00,-SN,BKN,0.01,WeatherDisplay:10.37,2013-03-27 12:30:00,
2013-03-27 13:35:00,35.2,27.1,29.82,North,0,4.6,4.6,72,0.00,-SN,BKN,0.01,WeatherDisplay:10.37,2013-03-27 12:35:00,
2013-03-27 13:40:00,35.2,27.1,29.82,NW,315,3.5,3.5,72,0.00,-SN,BKN,0.01,WeatherDisplay:10.37,2013-03-27 12:40:00,
2013-03-27 13:45:00,35.1,26.9,29.83,East,90,3.5,3.5,72,0.00,-SN,BKN,0.01,WeatherDisplay:10.37,2013-03-27 12:45:00,
2013-03-27 13:50:00,35.2,27.1,29.83,NE,45,4.6,4.6,72,0.00,BKN,,0.01,WeatherDisplay:10.37,2013-03-27 12:50:00,
2013-03-27 13:55:00,35.1,26.9,29.83,North,0,3.8,3.8,72,0.00,BKN,,0.01,WeatherDisplay:10.37,2013-03-27 12:55:00,
2013-03-27 14:00:00,34.9,26.8,29.82,North,0,3.5,3.5,72,0.00,BKN,,0.01,WeatherDisplay:10.37,2013-03-27 13:00:00,
2013-03-27 14:05:00,34.9,26.8,29.83,North,0,3.5,3.5,72,0.00,BKN,,0.01,WeatherDisplay:10.37,2013-03-27 13:05:00,
2013-03-27 14:10:00,34.7,26.6,29.83,North,0,3.1,3.1,72,0.00,BKN,,0.01,WeatherDisplay:10.37,2013-03-27 13:10:00,
2013-03-27 14:15:00,34.9,27.1,29.83,East,90,1.6,0.0,73,0.00,BKN,,0.01,WeatherDisplay:10.37,2013-03-27 13:15:00,
2013-03-27 14:20:00,34.9,27.1,29.84,SE,135,3.5,3.5,73,0.00,OVC,BKN,0.01,WeatherDisplay:10.37,2013-03-27 13:20:00,
2013-03-27 14:25:00,34.7,26.9,29.84,East,90,3.1,3.1,73,0.00,OVC,BKN,0.01,WeatherDisplay:10.37,2013-03-27 13:25:00,
2013-03-27 14:30:00,34.5,26.8,29.83,East,90,3.5,3.5,73,0.00,OVC,BKN,0.01,WeatherDisplay:10.37,2013-03-27 13:30:00,
2013-03-27 14:35:00,34.5,26.8,29.84,NE,45,2.2,2.2,73,0.00,OVC,BKN,0.01,WeatherDisplay:10.37,2013-03-27 13:35:00,
2013-03-27 14:40:00,34.3,26.6,29.84,East,90,3.8,3.8,73,0.00,OVC,BKN,0.01,WeatherDisplay:10.37,2013-03-27 13:40:00,
2013-03-27 14:45:00,34.3,26.6,29.84,East,90,2.3,2.3,73,0.00,OVC,BKN,0.01,WeatherDisplay:10.37,2013-03-27 13:45:00,
2013-03-27 14:50:00,34.3,26.6,29.84,SE,135,3.5,3.5,73,0.00,OVC,BKN,0.01,WeatherDisplay:10.37,2013-03-27 13:50:00,
2013-03-27 14:55:00,34.2,26.4,29.84,East,90,5.8,5.8,73,0.00,OVC,BKN,0.01,WeatherDisplay:10.37,2013-03-27 13:55:00,
2013-03-27 15:00:00,34.0,26.2,29.84,SE,135,3.5,3.5,73,0.00,OVC,BKN,0.01,WeatherDisplay:10.37,2013-03-27 14:00:00,
2013-03-27 15:05:00,34.0,26.2,29.84,ESE,112,3.5,3.5,73,0.00,OVC,BKN,0.01,WeatherDisplay:10.37,2013-03-27 14:05:00,
2013-03-27 15:10:00,34.0,26.2,29.84,East,90,4.6,4.6,73,0.00,OVC,BKN,0.01,WeatherDisplay:10.37,2013-03-27 14:10:00,
2013-03-27 15:15:00,34.0,26.6,29.84,NE,45,5.8,5.8,74,0.00,OVC,BKN,0.01,WeatherDisplay:10.37,2013-03-27 14:15:00,
2013-03-27 15:20:00,34.0,26.6,29.84,East,90,5.8,5.8,74,0.00,OVC,BKN,0.01,WeatherDisplay:10.37,2013-03-27 14:20:00,
2013-03-27 15:25:00,34.0,26.6,29.84,SE,135,5.4,5.4,74,0.00,OVC,BKN,0.01,WeatherDisplay:10.37,2013-03-27 14:25:00,
2013-03-27 15:30:00,34.0,26.6,29.85,SE,135,4.6,4.6,74,0.00,OVC,BKN,0.01,WeatherDisplay:10.37,2013-03-27 14:30:00,
2013-03-27 15:35:00,34.0,26.6,29.84,East,90,5.4,5.4,74,0.00,OVC,BKN,0.01,WeatherDisplay:10.37,2013-03-27 14:35:00,
2013-03-27 15:40:00,33.8,26.4,29.85,SE,135,5.8,5.8,74,0.01,RA,BKN,0.02,WeatherDisplay:10.37,2013-03-27 14:40:00,
2013-03-27 15:45:00,33.8,26.4,29.85,East,90,3.8,3.8,74,0.01,RA,BKN,0.02,WeatherDisplay:10.37,2013-03-27 14:45:00,
2013-03-27 15:50:00,33.8,26.4,29.85,SE,135,4.5,4.5,74,0.01,OVC,BKN,0.02,WeatherDisplay:10.37,2013-03-27 14:50:00,
2013-03-27 15:55:00,33.6,26.5,29.85,ESE,112,3.8,3.8,75,0.01,OVC,BKN,0.02,WeatherDisplay:10.37,2013-03-27 14:55:00,
2013-03-27 16:00:00,33.6,26.9,29.85,East,90,3.5,3.5,76,0.01,OVC,BKN,0.02,WeatherDisplay:10.37,2013-03-27 15:00:00,
2013-03-27 16:05:00,33.8,26.7,29.85,East,90,4.5,4.5,75,0.01,OVC,BKN,0.02,WeatherDisplay:10.37,2013-03-27 15:05:00,
2013-03-27 16:10:00,33.6,26.9,29.85,SE,135,4.6,4.6,76,0.01,OVC,BKN,0.02,WeatherDisplay:10.37,2013-03-27 15:10:00,
2013-03-27 16:15:00,33.6,26.9,29.85,SE,135,5.8,5.8,76,0.02,RA,BKN,0.04,WeatherDisplay:10.37,2013-03-27 15:15:00,
2013-03-27 16:20:00,33.6,26.9,29.85,SE,135,3.8,3.8,76,0.02,-SN,BKN,0.04,WeatherDisplay:10.37,2013-03-27 15:20:00,
2013-03-27 16:25:00,33.4,26.7,29.85,SE,135,2.3,2.3,76,0.02,-SN,BKN,0.04,WeatherDisplay:10.37,2013-03-27 15:25:00,
2013-03-27 16:30:00,33.4,26.7,29.85,ESE,112,3.8,3.8,76,0.02,-SN,BKN,0.04,WeatherDisplay:10.37,2013-03-27 15:30:00,
2013-03-27 16:35:00,33.4,26.7,29.86,ENE,68,2.3,2.3,76,0.02,-SN,BKN,0.04,WeatherDisplay:10.37,2013-03-27 15:35:00,
2013-03-27 16:40:00,33.4,26.7,29.85,ENE,68,2.3,2.3,76,0.01,-SN,BKN,0.04,WeatherDisplay:10.37,2013-03-27 15:40:00,
2013-03-27 16:45:00,33.4,27.0,29.86,SE,135,3.8,3.8,77,0.01,-SN,BKN,0.04,WeatherDisplay:10.37,2013-03-27 15:45:00,
2013-03-27 16:50:00,33.4,27.0,29.86,SE,135,3.8,3.8,77,0.01,-SN,BKN,0.04,WeatherDisplay:10.37,2013-03-27 15:50:00,
2013-03-27 16:55:00,33.4,27.0,29.86,East,90,3.5,3.5,77,0.01,-SN,BKN,0.04,WeatherDisplay:10.37,2013-03-27 15:55:00,
2013-03-27 17:00:00,33.3,26.8,29.86,SSE,158,3.1,3.1,77,0.01,-SN,BKN,0.04,WeatherDisplay:10.37,2013-03-27 16:00:00,
2013-03-27 17:05:00,33.3,26.8,29.86,East,90,3.5,3.5,77,0.01,-SN,BKN,0.04,WeatherDisplay:10.37,2013-03-27 16:05:00,
2013-03-27 17:10:00,33.3,26.8,29.86,East,90,2.3,2.3,77,0.02,-SN,BKN,0.05,WeatherDisplay:10.37,2013-03-27 16:10:00,
2013-03-27 17:15:00,33.3,26.8,29.86,East,90,3.8,3.8,77,0.01,-SN,BKN,0.05,WeatherDisplay:10.37,2013-03-27 16:15:00,
2013-03-27 17:20:00,33.3,27.1,29.86,ESE,112,3.5,3.5,78,0.01,-SN,BKN,0.05,WeatherDisplay:10.37,2013-03-27 16:20:00,
2013-03-27 17:25:00,33.1,27.0,29.86,East,90,3.1,3.1,78,0.01,-SN,BKN,0.05,WeatherDisplay:10.37,2013-03-27 16:25:00,
2013-03-27 17:30:00,33.1,27.0,29.86,NE,45,4.5,4.5,78,0.01,-SN,BKN,0.05,WeatherDisplay:10.37,2013-03-27 16:30:00,
2013-03-27 17:35:00,33.1,27.0,29.87,East,90,3.5,0.0,78,0.01,-SN,BKN,0.05,WeatherDisplay:10.37,2013-03-27 16:35:00,
2013-03-27 17:40:00,32.9,26.8,29.87,NE,45,3.5,3.5,78,0.01,-SN,BKN,0.05,WeatherDisplay:10.37,2013-03-27 16:40:00,
2013-03-27 17:45:00,32.9,26.8,29.87,East,90,2.3,2.3,78,0.01,-SN,BKN,0.05,WeatherDisplay:10.37,2013-03-27 16:45:00,
2013-03-27 17:50:00,32.9,26.8,29.87,ENE,68,3.8,3.8,78,0.01,-SN,BKN,0.05,WeatherDisplay:10.37,2013-03-27 16:50:00,
2013-03-27 17:55:00,32.9,26.8,29.87,NE,45,3.5,3.5,78,0.01,-SN,BKN,0.05,WeatherDisplay:10.37,2013-03-27 16:55:00,
2013-03-27 18:00:00,32.7,26.9,29.88,NE,45,3.1,3.1,79,0.01,-SN,BKN,0.05,WeatherDisplay:10.37,2013-03-27 17:00:00,
2013-03-27 18:05:00,32.7,26.9,29.87,ENE,68,4.6,4.6,79,0.01,-SN,BKN,0.07,WeatherDisplay:10.37,2013-03-27 17:05:00,
2013-03-27 18:10:00,32.7,26.9,29.87,NE,45,2.3,2.3,79,0.02,-SN,BKN,0.07,WeatherDisplay:10.37,2013-03-27 17:10:00,
2013-03-27 18:15:00,32.7,26.9,29.88,NE,45,3.5,3.5,79,0.02,-SN,BKN,0.07,WeatherDisplay:10.37,2013-03-27 17:15:00,
2013-03-27 18:20:00,32.7,26.9,29.88,NE,45,3.5,3.5,79,0.02,-SN,BKN,0.07,WeatherDisplay:10.37,2013-03-27 17:20:00,
2013-03-27 18:25:00,32.7,26.9,29.88,NE,45,2.3,2.3,79,0.02,-SN,BKN,0.07,WeatherDisplay:10.37,2013-03-27 17:25:00,
2013-03-27 18:30:00,32.7,27.2,29.87,East,90,2.2,2.2,80,0.02,-SN,BKN,0.07,WeatherDisplay:10.37,2013-03-27 17:30:00,
2013-03-27 18:35:00,32.5,27.1,29.87,NE,45,1.2,0.0,80,0.02,-SN,BKN,0.07,WeatherDisplay:10.37,2013-03-27 17:35:00,
2013-03-27 18:40:00,32.5,27.1,29.88,NE,45,1.6,1.6,80,0.02,-SN,BKN,0.07,WeatherDisplay:10.37,2013-03-27 17:40:00,
2013-03-27 18:45:00,32.5,27.1,29.88,East,90,2.2,2.2,80,0.02,-SN,BKN,0.07,WeatherDisplay:10.37,2013-03-27 17:45:00,
2013-03-27 18:50:00,32.5,27.1,29.88,NE,45,2.3,2.3,80,0.02,-SN,BKN,0.07,WeatherDisplay:10.37,2013-03-27 17:50:00,
2013-03-27 18:55:00,32.5,27.1,29.88,NE,45,1.6,0.0,80,0.02,-SN,BKN,0.08,WeatherDisplay:10.37,2013-03-27 17:55:00,
2013-03-27 19:00:00,32.5,27.1,29.89,NE,45,1.2,0.0,80,0.04,-SN,BKN,0.08,WeatherDisplay:10.37,2013-03-27 18:00:00,
2013-03-27 19:05:00,32.5,27.1,29.89,NE,45,1.2,0.0,80,0.04,-SN,BKN,0.08,WeatherDisplay:10.37,2013-03-27 18:05:00,
2013-03-27 19:10:00,32.5,27.1,29.89,NE,45,1.2,1.2,80,0.01,-SN,BKN,0.08,WeatherDisplay:10.37,2013-03-27 18:10:00,
2013-03-27 19:15:00,32.5,27.1,29.90,NE,45,0.0,0.0,80,0.01,-SN,BKN,0.08,WeatherDisplay:10.37,2013-03-27 18:15:00,
2013-03-27 19:20:00,32.5,27.1,29.89,NE,45,0.0,0.0,80,0.01,-SN,BKN,0.08,WeatherDisplay:10.37,2013-03-27 18:20:00,
2013-03-27 19:25:00,32.5,27.1,29.88,NE,45,1.2,0.0,80,0.01,-SN,BKN,0.08,WeatherDisplay:10.37,2013-03-27 18:25:00,
2013-03-27 19:30:00,32.5,27.1,29.89,NE,45,1.6,1.6,80,0.01,-SN,BKN,0.08,WeatherDisplay:10.37,2013-03-27 18:30:00,
2013-03-27 19:35:00,32.5,27.1,29.89,NE,45,2.3,0.0,80,0.01,-SN,BKN,0.08,WeatherDisplay:10.37,2013-03-27 18:35:00,
2013-03-27 19:40:00,32.5,27.1,29.89,NE,45,1.6,1.6,80,0.01,-SN,BKN,0.08,WeatherDisplay:10.37,2013-03-27 18:40:00,
2013-03-27 19:45:00,32.5,27.1,29.89,NE,45,1.6,1.6,80,0.01,-SN,BKN,0.08,WeatherDisplay:10.37,2013-03-27 18:45:00,
2013-03-27 19:50:00,32.5,27.1,29.89,NE,45,1.6,1.6,80,0.01,-SN,BKN,0.08,WeatherDisplay:10.37,2013-03-27 18:50:00,
2013-03-27 20:30:00,32.5,27.4,29.90,NE,45,1.2,0.0,81,0.00,CLR,BKN,0.08,WeatherDisplay:10.37,2013-03-27 19:30:00,
2013-03-27 20:35:00,32.5,27.4,29.90,NE,45,1.6,1.6,81,0.00,-SN,BKN,0.08,WeatherDisplay:10.37,2013-03-27 19:35:00,
2013-03-27 20:40:00,32.5,27.4,29.91,NE,45,1.2,0.0,81,0.00,-SN,BKN,0.08,WeatherDisplay:10.37,2013-03-27 19:40:00,
2013-03-27 20:45:00,32.4,27.2,29.90,NE,45,1.6,1.6,81,0.00,-SN,BKN,0.08,WeatherDisplay:10.37,2013-03-27 19:45:00,
2013-03-27 20:50:00,32.4,27.2,29.91,NE,45,1.6,1.6,81,0.00,-SN,BKN,0.08,WeatherDisplay:10.37,2013-03-27 19:50:00,
2013-03-27 20:55:00,32.4,27.2,29.91,NE,45,1.6,1.6,81,0.00,-SN,BKN,0.08,WeatherDisplay:10.37,2013-03-27 19:55:00,
2013-03-27 21:00:00,32.4,27.2,29.91,North,0,2.3,2.3,81,0.00,-SN,BKN,0.08,WeatherDisplay:10.37,2013-03-27 20:00:00,
2013-03-27 21:05:00,32.4,27.2,29.91,North,0,1.2,0.0,81,0.00,-SN,BKN,0.08,WeatherDisplay:10.37,2013-03-27 20:05:00,
2013-03-27 21:10:00,32.4,27.2,29.91,North,0,1.6,1.6,81,0.00,-SN,BKN,0.08,WeatherDisplay:10.37,2013-03-27 20:10:00,
2013-03-27 21:16:00,32.4,27.2,29.91,North,0,1.6,1.6,81,0.00,-SN,BKN,0.08,WeatherDisplay:10.37,2013-03-27 20:16:00,
2013-03-27 21:21:00,32.4,27.2,29.90,North,0,2.2,2.2,81,0.00,-SN,BKN,0.08,WeatherDisplay:10.37,2013-03-27 20:21:00,
2013-03-27 21:26:00,32.5,27.4,29.90,North,0,1.6,1.6,81,0.00,-SN,BKN,0.08,WeatherDisplay:10.37,2013-03-27 20:26:00,
2013-03-27 21:31:00,32.5,27.4,29.90,NE,45,2.3,2.3,81,0.00,-SN,BKN,0.08,WeatherDisplay:10.37,2013-03-27 20:31:00,
2013-03-27 21:37:00,32.5,27.4,29.90,NE,45,1.6,1.6,81,0.00,-SN,BKN,0.08,WeatherDisplay:10.37,2013-03-27 20:37:00,
2013-03-27 21:42:00,32.5,27.4,29.90,North,0,2.3,2.3,81,0.00,-SN,BKN,0.08,WeatherDisplay:10.37,2013-03-27 20:42:00,
2013-03-27 21:48:00,32.5,27.4,29.90,North,0,2.2,2.2,81,0.00,-SN,BKN,0.08,WeatherDisplay:10.37,2013-03-27 20:48:00,
2013-03-27 21:53:00,32.5,27.4,29.90,North,0,1.2,0.0,81,0.00,-SN,BKN,0.08,WeatherDisplay:10.37,2013-03-27 20:53:00,
2013-03-27 21:58:00,32.5,27.4,29.91,NE,45,2.3,2.3,81,0.00,-SN,BKN,0.08,WeatherDisplay:10.37,2013-03-27 20:58:00,
2013-03-27 22:03:00,32.5,27.4,29.91,NE,45,1.2,0.0,81,0.00,-SN,BKN,0.08,WeatherDisplay:10.37,2013-03-27 21:03:00,
2013-03-27 22:08:00,32.5,27.4,29.91,NE,45,1.2,0.0,81,0.00,-SN,BKN,0.08,WeatherDisplay:10.37,2013-03-27 21:08:00,
2013-03-27 22:13:00,32.5,27.4,29.91,NE,45,1.2,0.0,81,0.00,-SN,BKN,0.08,WeatherDisplay:10.37,2013-03-27 21:13:00,
2013-03-27 22:18:00,32.5,27.4,29.91,NE,45,1.6,0.0,81,0.00,OVC,BKN,0.08,WeatherDisplay:10.37,2013-03-27 21:18:00,
2013-03-27 22:23:00,32.5,27.4,29.91,NE,45,1.6,1.6,81,0.00,OVC,BKN,0.08,WeatherDisplay:10.37,2013-03-27 21:23:00,
2013-03-27 22:28:00,32.5,27.4,29.90,NE,45,2.3,2.3,81,0.00,OVC,BKN,0.08,WeatherDisplay:10.37,2013-03-27 21:28:00,
2013-03-27 22:33:00,32.5,27.4,29.91,NE,45,1.2,0.0,81,0.00,OVC,BKN,0.08,WeatherDisplay:10.37,2013-03-27 21:33:00,
2013-03-27 22:38:00,32.5,27.4,29.91,NE,45,2.3,2.3,81,0.00,OVC,BKN,0.08,WeatherDisplay:10.37,2013-03-27 21:38:00,
2013-03-27 22:43:00,32.5,27.7,29.91,East,90,2.3,2.3,82,0.00,OVC,BKN,0.08,WeatherDisplay:10.37,2013-03-27 21:43:00,
2013-03-27 22:48:00,32.5,27.7,29.90,NE,45,2.3,2.3,82,0.00,OVC,BKN,0.08,WeatherDisplay:10.37,2013-03-27 21:48:00,
2013-03-27 22:53:00,32.5,27.7,29.91,NE,45,3.5,3.5,82,0.00,OVC,BKN,0.08,WeatherDisplay:10.37,2013-03-27 21:53:00,
2013-03-27 22:58:00,32.5,27.7,29.91,NE,45,2.3,2.3,82,0.00,OVC,BKN,0.08,WeatherDisplay:10.37,2013-03-27 21:58:00,
2013-03-27 23:03:00,32.5,27.7,29.91,NE,45,3.5,0.0,82,0.00,OVC,BKN,0.08,WeatherDisplay:10.37,2013-03-27 22:03:00,
2013-03-27 23:08:00,32.5,27.7,29.91,NE,45,1.6,0.0,82,0.00,OVC,BKN,0.08,WeatherDisplay:10.37,2013-03-27 22:08:00,
2013-03-27 23:13:00,32.5,27.7,29.91,NE,45,2.3,2.3,82,0.00,OVC,BKN,0.08,WeatherDisplay:10.37,2013-03-27 22:13:00,
2013-03-27 23:18:00,32.5,27.7,29.91,East,90,2.3,2.3,82,0.00,OVC,BKN,0.08,WeatherDisplay:10.37,2013-03-27 22:18:00,
2013-03-27 23:23:00,32.5,27.7,29.91,East,90,1.2,0.0,82,0.00,OVC,BKN,0.08,WeatherDisplay:10.37,2013-03-27 22:23:00,
2013-03-27 23:28:00,32.5,27.7,29.91,East,90,0.0,0.0,82,0.00,OVC,BKN,0.08,WeatherDisplay:10.37,2013-03-27 22:28:00,
2013-03-27 23:33:00,32.5,27.7,29.91,North,0,1.2,0.0,82,0.00,OVC,BKN,0.08,WeatherDisplay:10.37,2013-03-27 22:33:00,
2013-03-27 23:38:00,32.4,27.5,29.91,North,0,0.0,0.0,82,0.00,OVC,BKN,0.08,WeatherDisplay:10.37,2013-03-27 22:38:00,
2013-03-27 23:43:00,32.4,27.5,29.91,North,0,1.2,0.0,82,0.00,OVC,BKN,0.08,WeatherDisplay:10.37,2013-03-27 22:43:00,
2013-03-27 23:48:00,32.4,27.5,29.91,North,0,0.0,0.0,82,0.00,OVC,BKN,0.08,WeatherDisplay:10.37,2013-03-27 22:48:00,
2013-03-27 23:53:00,32.4,27.5,29.91,East,90,1.2,0.0,82,0.00,OVC,BKN,0.08,WeatherDisplay:10.37,2013-03-27 22:53:00,
2013-03-27 23:58:00,32.4,27.5,29.91,North,0,1.6,1.6,82,0.00,OVC,BKN,0.08,WeatherDisplay:10.37,2013-03-27 22:58:00,